Starlink 31251

operational
NORAD ID: 58836 Int'l Des: 2024-017 Owner: SPXS Country: US Constellation: starlink
LEOCIRCULAR

Starlink 31251について

説明を読み込み中...

リアルタイム位置

3D地球を読み込み中...

次回通過

高度履歴

Altitude vs Time

uPlot chart will show altitude changes over time

軌道要素

1 58836U 24017L 25305.65518779 .00000502 00000-0 29067-4 0 9992
2 58836 53.1605 79.0186 0001046 71.6192 288.4923 15.30195079100568
Epoch: Nov 1, 2025 • Age: 27 hours

現在のステータス

高度 475.3 km
速度 7.63 km/s
衛星直下点 20.58°N, 130.52°E
打ち上げ日 Jan 24, 2024
運用期間 1.7 years
タイプ internet

技術仕様

分類 Payload
質量 730.00 kg
乾燥質量 700.00 kg
総質量 730.00 kg
長さ 0.30 m
直径 4.10 m
スパン 29.00 m
形状 Box + pan
製造者 SPXS
バスタイプ Starlink V2M
フェーズステータス In Orbit
所有者/国 SPXS/US

大規模コンステレーション

Loading constellations...